Regional Weather Roundup
Issued by NWS

Home | Current Version | Previous Version | Text Only | Print | Product List | Glossary Off
Versions: 1 2 3 4 5 6 7 8 9 10 11 12 13 14 15 16 17 18 19 20 21 22 23 24 25 26 27 28 29 30 31 32 33 34 35 36 37 38 39 40 41 42 43 44 45 46 47 48 49 50

447
ASUS43 KMKX 060821
RWRWI

WISCONSIN REGIONAL WEATHER ROUNDUP
NATIONAL WEATHER SERVICE MILWAUKEE/SULLIVAN WI
200 AM CST SAT FEB 06 2016

NOTE: "FAIR" INDICATES FEW OR NO CLOUDS BELOW 12,000 FEET WITH NO
SIGNIFICANT WEATHER AND/OR OBSTRUCTIONS TO VISIBILITY.

WIZ001-002-006>008-014>016-023>028-060900-
NORTHWEST WISCONSIN

CITY           SKY/WX    TMP DP  RH WIND       PRES   REMARKS
SUPERIOR ARPT  PTCLDY    23  17  77 SW6       30.10S WCI  16
ASHLAND        CLOUDY    23  17  78 SW9       30.10S WCI  13
HAYWARD        CLOUDY    22  19  89 SW6       30.10S FOG     WCI  14
SIREN          CLOUDY    25  21  87 SW6       30.12S WCI  18
CUMBERLAND     CLOUDY    23  21  93 SW7       30.11S FOG     WCI  15
RICE LAKE      CLOUDY    23  21  91 SW3       30.14S FOG
CHETEK         CLOUDY    23  21  93 SW6       30.14S FOG     WCI  16
LADYSMITH      CLOUDY    22  19  87 SW8       30.13F WCI  13
EAU CLAIRE     CLOUDY    24  19  81 SW8       30.15F WCI  15
MENOMONIE      CLOUDY    25  20  82 CALM      30.16S
NEW RICHMOND   CLOUDY    25  22  88 SW7       30.14S FOG     WCI  17
OSCEOLA        CLOUDY    26  23  89 SW5       30.17S WCI  20
$$

WIZ003>005-009-010-017-018-060900-
NORTH CENTRAL WISCONSIN

CITY           SKY/WX    TMP DP  RH WIND       PRES   REMARKS
MANITOWISH WTR CLOUDY    19  18  96 W6        30.06R FOG     WCI  11
ARBOR VITAE    CLOUDY    22  18  86 W7G16     30.06S WCI  13
WOODRUFF       CLOUDY    22  18  86 W7G16     30.06S WCI  13
RHINELANDER    CLOUDY    20  15  81 SW10      30.07F WCI   9
EAGLE RIVER    CLOUDY    20  15  81 W9        30.06R WCI  10
LAND O LAKES   CLOUDY    21  18  86 W7        30.05S WCI  13
PHILLIPS       CLOUDY    19  17  91 SW8       30.09S WCI   9
TOMAHAWK       CLOUDY    20  16  82 SW3       30.10S
MEDFORD        CLOUDY    21  18  90 SW8       30.11S WCI  11
MERRILL        FLURRIES  21  17  83 W10       30.12S WCI  10
$$

WIZ029-030-035-036-043>047-060900-
CENTRAL WISCONSIN

CITY           SKY/WX    TMP DP  RH WIND       PRES   REMARKS
WAUSAU         FLURRIES  23  17  78 SW7       30.12F WCI  15
MOSINEE        LGT SNOW  23  19  86 SW13      30.14S WCI  11
MARSHFIELD     CLOUDY    23  16  74 SW14      30.12F WCI  11
STEVENS POINT  FLURRIES  21  17  82 SW9       30.16F WCI  11
WAUPACA        CLOUDY    27  19  71 S6        30.19F WCI  20
WAUTOMA        CLOUDY    25  19  80 SW6       30.20F WCI  18
WISC RAPIDS    FLURRIES  23  17  78 SW9       30.18F WCI  13
CAMP DOUGLAS   MIX PCPN  27  25  93 SW9       30.18S WCI  17
$$

WIZ011>013-019>022-031-037>040-048>050-060900-
NORTHEAST WISCONSIN

CITY           SKY/WX    TMP DP  RH WIND       PRES   REMARKS
ANTIGO         FLURRIES  20  17  85 SW12      30.10S WCI   8
SHAWANO        FLURRIES  26  19  75 SW6       30.17F WCI  20
OCONTO         CLOUDY    25  18  75 SW10      30.17S WCI  15
STURGEON BAY   CLOUDY    25  12  58 SW15G22   30.18F WCI  12
GREEN BAY      CLOUDY    25  17  72 SW8       30.19F WCI  16
MANITOWOC      CLOUDY    27  18  69 W13       30.21F WCI  16
APPLETON       CLOUDY    25  18  74 S12       30.17F WCI  14
CLINTONVILLE   FLURRIES  27  19  74 SW9       30.18S WCI  17
OSHKOSH        CLOUDY    24  17  74 VRB3      30.20F
$$

WIZ032>034-041-042-053>061-060900-
SOUTHWEST WISCONSIN

CITY           SKY/WX    TMP DP  RH WIND       PRES   REMARKS
LA CROSSE      CLOUDY    26  20  77 S7        30.20F WCI  18
SPARTA         CLOUDY    26  22  84 SW8       30.20F WCI  18
VIROQUA        CLOUDY    25  21  87 SW12      30.18F WCI  14
BOSCOBEL       CLOUDY    27  22  81 CALM      30.24F
PRAIRIE DU CHI CLOUDY    28  19  69 CALM      30.24S
PLATTEVILLE    CLOUDY    27  24  89 S9        30.23F WCI  17
$$

WIZ056-057-062-063-064-067-068-060900-
SOUTH CENTRAL WISCONSIN

CITY           SKY/WX    TMP DP  RH WIND       PRES   REMARKS
REEDSBURG      CLOUDY    26  19  73 SW8       30.21S WCI  18
BARABOO/DELLS  CLOUDY    26  18  73 SW9       30.20F WCI  16
LONE ROCK      CLOUDY    28  19  69 CALM      30.24F
MINERAL POINT  CLOUDY    28  25  86 SW8       30.22S WCI  20
MADISON        CLOUDY    27  20  75 SW8       30.23F WCI  19
MIDDLETON      CLOUDY    28  22  76 SW6       30.23F WCI  22
WATERTOWN      CLOUDY    27  23  82 SW8       30.23F WCI  19
MONROE         CLOUDY    28  23  80 S12       30.23F WCI  18
JANESVILLE     CLOUDY    30  27  86 SW6       30.26S WCI  24
$$

WIZ051-052-058>065-066-070>072-060900-
SOUTHEAST WISCONSIN

CITY           SKY/WX    TMP DP  RH WIND       PRES   REMARKS
MILWAUKEE      CLOUDY    28  20  71 W7        30.26S WCI  21
WAUKESHA       CLOUDY    27  21  80 SW7       30.25F WCI  19
MILWAUKEE/TIMM CLOUDY    28  19  69 SW8       30.26S WCI  20
RACINE         CLOUDY    28  20  71 W7        30.27F WCI  21
BURLINGTON     CLOUDY    25  21  84 SW6       30.26S WCI  18
KENOSHA        CLEAR     25  20  81 SW8       30.26S WCI  16
FOND DU LAC    CLOUDY    25  18  74 SW7       30.21F WCI  17
SHEBOYGAN        N/A     27  19  72 SW13      30.21F WCI  16
WEST BEND      CLOUDY    28  21  74 SW7       30.23S WCI  21
JUNEAU         CLOUDY    26  20  80 S9        30.23F WCI  16
$$

LSZ147-162-060900-
LAKE SUPERIOR

STATION/POSITION TIME  TEMP    WIND        PRES    WAVE
                       AIR SEA DIR/SP/G            HT/PER
                 (UTC) (F)     (DEG/KT/KT) (MB)    (FT/S)
DEVILS ISLAND    0800   28     240/ 21/ 26 1018.9S
SAXON HARBOR     0700   25                 1018.6
$$

LMZ867-665-643>646-060900-
LAKE MICHIGAN

STATION/POSITION TIME  TEMP    WIND        PRES    WAVE
                       AIR SEA DIR/SP/G            HT/PER
                 (UTC) (F)     (DEG/KT/KT) (MB)    (FT/S)
CHAMBERS ISLAND  0700   23     190/  8/ 16 1021.0F
ALGOMA LAKESHORE 0741          260/ 10/ 16   N/A
KEWAUNEE LAKESHO 0700   26     300/ 10/ 13 1021.6F
SHEBOYGAN LAKESH 0800   28     230/ 13/ 15 1024.2F
PORT WASHINGTON  0700   29     260/  8/ 13 1025.1S
MILWAUKEE LAKESH 0710   29     240/ 11/ 14   N/A
KENOSHA   LAKESH 0800   28     240/  8/ 11 1024.7F
$$

TC  - TEMPERATURE IN CELSIUS
VSB - VISIBILITY IN STATUTE MILES
WCI - WIND CHILL INDEX
HX  - HEAT INDEX





USA.gov is the U.S. government's official web portal to all federal, state and local government web resources and services.